Weather History for Beatrice, NE

Change the Weather History Date:

Monday, January 11, 2010

  Actual Average Record
Temperature  
Mean Temperature 22 °F -  
Max Temperature 27 °F 28 °F 59 °F (2006)
Min Temperature 16 °F 9 °F -12 °F (1974)
Degree Days  
Heating Degree Days 42    
Moisture  
Dew Point 20 °F    
Average Humidity 88    
Maximum Humidity 94    
Minimum Humidity 82    
Precipitation  
Precipitation 0.00 in - - ()
Sea Level Pressure  
Sea Level Pressure 30.34 in    
Wind  
Wind Speed 8 mph (NNW)    
Max Wind Speed 15 mph    
Max Gust Speed -    
Visibility 10 miles    
Events      
Averages and records for this station are not official NWS values.
T = Trace of Precipitation, MM = Missing Value Source: NWS Daily Summary

Daily Weather History Graph

Daily Weather History Graph

Search for Another Location

Airport:

Trip Planner

Search our weather history database for the weather conditions in past years. The results will help you decide how hot, cold, wet, or windy it might be!

Date:

Astronomy

Jan. 11, 2010 Rise Set
Actual Time 7:49 AM CST 5:21 PM CST
Civil Twilight 7:19 AM CST 5:51 PM CST
Nautical Twilight 6:45 AM CST 6:25 PM CST
Astronomical Twilight 6:12 AM CST 6:57 PM CST
Moon 5:04 AM CST (1/11) 2:11 PM CST (1/11)
Length of Visible Light 10h 32m
Length of Day
9h 32m
Waning Crescent, 11% of the Moon is Illuminated
Jan 11
Waning Crescent
Jan 15
New
Jan 23
First Quarter
Jan 30
Full
Feb 5
Last Quarter

Hourly Weather History & Observations

Time (CST) Temp. Windchill Dew Point Humidity Pressure Visibility Wind Dir Wind Speed Gust Speed Precip Events Conditions
12:10 AM 19.4 °F 12.8 °F 16.3 °F 88% 30.21 in 10.0 mi West 4.6 mph - N/A   Clear
12:30 AM 18.1 °F 10.0 °F 15.4 °F 89% 30.21 in 10.0 mi WNW 5.8 mph - N/A   Clear
12:50 AM 20.7 °F 11.9 °F 18.0 °F 89% 30.21 in 10.0 mi WNW 6.9 mph - N/A   Clear
1:10 AM 20.8 °F 12.1 °F 18.1 °F 89% 30.22 in 10.0 mi WNW 6.9 mph - N/A   Clear
1:30 AM 20.1 °F 11.3 °F 17.4 °F 89% 30.22 in 10.0 mi WNW 6.9 mph - N/A   Clear
1:50 AM 21.0 °F 11.4 °F 18.5 °F 90% 30.22 in 10.0 mi WNW 8.1 mph - N/A   Clear
2:10 AM 21.2 °F 13.6 °F 18.5 °F 89% 30.22 in 10.0 mi WNW 5.8 mph - N/A   Clear
2:30 AM 19.4 °F 11.5 °F 17.2 °F 91% 30.22 in 10.0 mi WNW 5.8 mph - N/A   Clear
2:50 AM 18.3 °F 10.2 °F 16.2 °F 91% 30.23 in 10.0 mi WNW 5.8 mph - N/A   Clear
3:10 AM 18.7 °F 10.6 °F 16.7 °F 92% 30.23 in 10.0 mi WNW 5.8 mph - N/A   Clear
3:30 AM 18.1 °F 8.9 °F 16.7 °F 94% 30.24 in 10.0 mi WNW 6.9 mph - N/A   Clear
3:50 AM 21.0 °F 9.9 °F 19.6 °F 94% 30.24 in 10.0 mi WNW 10.4 mph - N/A   Clear
4:10 AM 22.3 °F 12.2 °F 20.1 °F 91% 30.24 in 10.0 mi WNW 9.2 mph - N/A   Clear
4:30 AM 22.6 °F 11.9 °F 20.5 °F 91% 30.24 in 10.0 mi WNW 10.4 mph - N/A   Clear
4:50 AM 22.8 °F 12.9 °F 20.5 °F 91% 30.24 in 10.0 mi WNW 9.2 mph - N/A   Clear
5:10 AM 22.6 °F 12.6 °F 20.5 °F 91% 30.24 in 10.0 mi WNW 9.2 mph - N/A   Clear
5:30 AM 22.1 °F 11.3 °F 20.3 °F 93% 30.25 in 10.0 mi WNW 10.4 mph - N/A   Clear
5:50 AM 20.7 °F 13.0 °F 18.9 °F 93% 30.26 in 10.0 mi WNW 5.8 mph - N/A   Clear
6:10 AM 19.6 °F 9.7 °F 17.8 °F 93% 30.27 in 10.0 mi NW 8.1 mph - N/A   Clear
6:30 AM 18.3 °F 8.2 °F 16.7 °F 93% 30.28 in 10.0 mi NW 8.1 mph - N/A   Clear
6:50 AM 19.6 °F 8.9 °F 18.1 °F 94% 30.29 in 10.0 mi NNW 9.2 mph - N/A   Clear
7:10 AM 21.0 °F 10.6 °F 18.9 °F 91% 30.30 in 10.0 mi NW 9.2 mph - N/A   Clear
7:30 AM 20.1 °F 10.3 °F 18.0 °F 91% 30.31 in 10.0 mi NW 8.1 mph - N/A   Clear
7:50 AM 18.3 °F 9.1 °F 16.3 °F 92% 30.32 in 10.0 mi NNW 6.9 mph - N/A   Clear
8:10 AM 18.5 °F 7.5 °F 16.7 °F 93% 30.33 in 10.0 mi North 9.2 mph - N/A   Clear
8:30 AM 18.5 °F 10.4 °F 16.5 °F 92% 30.33 in 10.0 mi North 5.8 mph - N/A   Clear
8:50 AM 19.0 °F 11.1 °F 16.3 °F 89% 30.34 in 10.0 mi North 5.8 mph - N/A   Clear
9:10 AM 20.8 °F 11.2 °F 17.4 °F 87% 30.35 in 10.0 mi North 8.1 mph - N/A   Clear
9:30 AM 23.5 °F 14.5 °F 19.0 °F 83% 30.36 in 10.0 mi North 8.1 mph - N/A   Clear
9:50 AM 23.4 °F 12.8 °F 18.5 °F 82% 30.37 in 10.0 mi North 10.4 mph - N/A   Clear
10:10 AM 23.4 °F 16.2 °F 19.0 °F 84% 30.38 in 10.0 mi NNE 5.8 mph - N/A   Clear
10:30 AM 23.7 °F 15.6 °F 19.9 °F 85% 30.39 in 10.0 mi North 6.9 mph - N/A   Clear
10:50 AM 24.4 °F 13.5 °F 21.9 °F 90% 30.40 in 7.0 mi North 11.5 mph - N/A   Mostly Cloudy
11:10 AM 25.0 °F 13.6 °F 22.1 °F 89% 30.41 in 10.0 mi North 12.7 mph - N/A   Overcast
11:30 AM 25.9 °F 15.3 °F 22.8 °F 88% 30.41 in 7.0 mi North 11.5 mph - N/A   Overcast
11:50 AM 26.6 °F 16.2 °F 23.0 °F 86% 30.41 in 10.0 mi North 11.5 mph - N/A   Overcast
12:10 PM 27.1 °F 15.4 °F 23.2 °F 85% 30.41 in 10.0 mi North 15.0 mph - N/A   Overcast
12:30 PM 27.1 °F 16.4 °F 23.0 °F 84% 30.41 in 10.0 mi North 12.7 mph - N/A   Overcast
12:50 PM 27.5 °F 16.3 °F 23.2 °F 84% 30.41 in 10.0 mi North 13.8 mph - N/A   Overcast
1:10 PM 27.5 °F 16.8 °F 23.2 °F 84% 30.40 in 10.0 mi North 12.7 mph - N/A   Overcast
1:30 PM 27.7 °F 18.2 °F 23.5 °F 84% 30.40 in 10.0 mi North 10.4 mph - N/A   Overcast
1:50 PM 27.7 °F 18.2 °F 23.7 °F 85% 30.40 in 10.0 mi North 10.4 mph - N/A   Overcast
2:10 PM 27.9 °F 18.4 °F 24.1 °F 86% 30.40 in 10.0 mi North 10.4 mph - N/A   Overcast
2:30 PM 27.9 °F 19.1 °F 24.3 °F 86% 30.40 in 10.0 mi North 9.2 mph - N/A   Overcast
2:50 PM 27.9 °F 18.4 °F 24.3 °F 86% 30.40 in 10.0 mi North 10.4 mph - N/A   Overcast
3:10 PM 27.5 °F 18.6 °F 23.9 °F 86% 30.41 in 10.0 mi North 9.2 mph - N/A   Overcast
3:30 PM 27.5 °F 19.3 °F 23.5 °F 85% 30.41 in 10.0 mi North 8.1 mph - N/A   Overcast
3:50 PM 27.1 °F 18.9 °F 23.0 °F 84% 30.41 in 10.0 mi North 8.1 mph - N/A   Scattered Clouds
4:10 PM 26.6 °F 18.2 °F 22.5 °F 84% 30.42 in 10.0 mi North 8.1 mph - N/A   Clear
4:30 PM 26.1 °F 18.4 °F 22.1 °F 85% 30.43 in 10.0 mi North 6.9 mph - N/A   Clear
4:50 PM 25.3 °F 17.6 °F 21.2 °F 84% 30.43 in 10.0 mi North 6.9 mph - N/A   Clear
5:10 PM 22.5 °F 15.1 °F 19.0 °F 87% 30.44 in 10.0 mi North 5.8 mph - N/A   Clear
5:30 PM 21.9 °F 15.7 °F 18.9 °F 88% 30.44 in 10.0 mi North 4.6 mph - N/A   Clear
5:50 PM 19.9 °F 13.4 °F 16.5 °F 87% 30.45 in 10.0 mi North 4.6 mph - N/A   Clear
6:10 PM 19.0 °F 13.9 °F 16.3 °F 89% 30.45 in 10.0 mi North 3.5 mph - N/A   Clear
6:30 PM 16.9 °F - 14.4 °F 90% 30.46 in 10.0 mi Calm Calm - N/A   Clear
6:50 PM 18.0 °F 11.1 °F 15.4 °F 90% 30.45 in 10.0 mi NNE 4.6 mph - N/A   Clear
7:10 PM 14.0 °F - 11.3 °F 89% 30.46 in 10.0 mi Calm Calm - N/A   Clear
7:30 PM 17.8 °F 12.5 °F 15.6 °F 91% 30.46 in 10.0 mi NE 3.5 mph - N/A   Clear
8:10 PM 14.9 °F - 12.7 °F 91% 30.46 in 7.0 mi Calm Calm - N/A   Clear
8:30 PM 14.4 °F - 12.4 °F 92% 30.46 in 5.0 mi Calm Calm - N/A   Clear
8:50 PM 14.4 °F - 11.8 °F 90% 30.47 in 7.0 mi Calm Calm - N/A   Clear
9:10 PM 10.6 °F - 8.1 °F 90% 30.47 in 7.0 mi Calm Calm - N/A   Clear
9:30 PM 11.8 °F - 9.5 °F 90% 30.47 in 7.0 mi Calm Calm - N/A   Clear
9:50 PM 13.3 °F - 11.8 °F 94% 30.47 in 7.0 mi Calm Calm - N/A   Clear
10:10 PM 11.7 °F - 9.5 °F 91% 30.47 in 5.0 mi Calm Calm - N/A   Clear
10:30 PM 10.8 °F - 8.1 °F 89% 30.48 in 7.0 mi Calm Calm - N/A   Clear
10:50 PM 11.1 °F - 9.3 °F 92% 30.48 in 5.0 mi Calm Calm - N/A   Clear
11:10 PM 9.1 °F - 6.6 °F 89% 30.48 in 3.0 mi Calm Calm - N/A   Clear
11:30 PM 11.3 °F - 9.9 °F 94% 30.49 in 1.5 mi Calm Calm - N/A   Mist
11:50 PM 9.1 °F - 7.0 °F 91% 30.49 in 5.0 mi Calm Calm - N/A   Clear